User: anonymous   Login
Location: Hamburg
(53.5500°N, 10.0000°E)
Time: 04:19:01
(UTC+02:00)
Language:

Iridium 10 - Orbit

View from above orbital plane
View from above orbital plane
View from above satellite
View from above satellite

Ground track
Ground track

The orbit data is extracted from the following two-line orbital elements,

1 24839U 97030D   16243.24336021  .00000147  00000-0  45311-4 0  9992
2 24839  86.3949 111.7331 0002166  82.6545  55.9913 14.34216729  5252
Epoch (UTC): 30 August 2016 05:50:26
Eccentricity: 0.0002166
inclination: 86.3949°
perigee height: 776 km
apogee height: 779 km
right ascension of ascending node: 111.7331°
argument of perigee: 82.6545°
revolutions per day: 14.34216729
mean anomaly at epoch: 55.9913°
orbit number at epoch: 525

The dashed part of the orbit path shows where the satellite is in the earth's shadow,  

DLR